Météo Nord-Pas-de-Calais   La météo au plus près de chez vous

Station météorologique

Observations météo à Trappes (78621)

78621001 167 m Dernier relevé à 07:36
16.2°C
Humidité 78 % Vent 6.5 km/h 1022 hPa

Journée consultée

Jeudi 3 Septembre 2026

Synthèse de la journée

Périodes de référence en UTC

Température maximale

25.3°C

à 18:00

06h 06h

Température minimale

15.6°C

à 06:12

18h 18h

Rafale maximale

18 km/h

à 03:42

00h 00h

Précipitations

0 mm

Cumul quotidien

06h 06h

Ensoleillement

0h 5 mins

Durée quotidienne

00h 00h

Graphiques de la journée

Heure locale Réduire

Données détaillées

Relevés météo

Pas de 6 minutes Afficher les relevés infra-horaires
Relevés météo détaillés à Trappes pour le Jeudi 3 Septembre 2026
Heure Température °C Point de rosée °C Humidité % Vent moyen (raf.), km/h Précipitations mm Température à 10 cm °C Température à 20 cm °C Température à 50 cm °C Température à 100 cm °C Visibilité m Hauteur neige cm Ensoleillement min Rayonnement global W/m² Pression hPa
07:36 16.2 °C 12.4 °C 78 % 8 km/h (12 km/h) 0 mm0 mm 18.5 °C 19.2 °C 19.3 °C 18.7 °C 20000 m 0 cm 5 min 6.9 W/m² 1022.4 hPa
07:30 16.1 °C 12.3 °C 78 % 8 km/h (12 km/h) 0 mm0 mm 18.5 °C 19.2 °C 19.3 °C 18.7 °C 20000 m 0 cm 0 min 0 W/m² 1022.3 hPa
07:24 16.1 °C 12.1 °C 77 % 8 km/h (12 km/h) 0 mm0 mm 18.5 °C 19.2 °C 19.3 °C 18.7 °C 20000 m 0 cm 0 min 0 W/m² 1022.2 hPa
07:18 16.1 °C 12.1 °C 77 % 8 km/h (12 km/h) 0 mm0 mm 18.5 °C 19.3 °C 19.3 °C 18.7 °C 20000 m 0 cm 0 min 0 W/m² 1022 hPa
07:12 16.2 °C 12 °C 76 % 7 km/h (13 km/h) 0 mm0 mm 18.6 °C 19.3 °C 19.3 °C 18.7 °C 20000 m 0 cm 0 min 0 W/m² 1022 hPa
07:06 16.2 °C 12 °C 76 % 6 km/h (13 km/h) 0 mm0 mm 18.6 °C 19.3 °C 19.3 °C 18.7 °C 20000 m 0 cm 0 min 0 W/m² 1022 hPa
07:00 16.2 °C 12 °C 76 % 8 km/h (13 km/h) 0 mm0 mm 18.6 °C 19.3 °C 19.3 °C 18.7 °C 20000 m 0 cm 0 min 0 W/m² 1021.8 hPa
06:54 16.2 °C 12 °C 76 % 8 km/h (13 km/h) 0 mm0 mm 18.6 °C 19.3 °C 19.2 °C 18.7 °C 20000 m 0 cm 0 min 0 W/m² 1021.9 hPa
06:48 16.1 °C 12.1 °C 77 % 8 km/h (14 km/h) 0 mm0 mm 18.7 °C 19.3 °C 19.3 °C 18.7 °C 20000 m 0 cm 0 min 0 W/m² 1021.9 hPa
06:42 16 °C 12 °C 77 % 9 km/h (14 km/h) 0 mm0 mm 18.7 °C 19.3 °C 19.2 °C 18.7 °C 20000 m 0 cm 0 min 0 W/m² 1021.9 hPa
06:36 15.9 °C 12.1 °C 78 % 6 km/h (12 km/h) 0 mm0 mm 18.7 °C 19.3 °C 19.3 °C 18.7 °C 20000 m 0 cm 0 min 0 W/m² 1022 hPa
06:30 15.8 °C 12.2 °C 79 % 6 km/h (9 km/h) 0 mm0 mm 18.7 °C 19.3 °C 19.2 °C 18.7 °C 20000 m 0 cm 0 min 0 W/m² 1021.9 hPa
06:24 15.8 °C 12.2 °C 79 % 6 km/h (9 km/h) 0 mm0 mm 18.7 °C 19.4 °C 19.3 °C 18.7 °C 20000 m 0 cm 0 min 0 W/m² 1021.9 hPa
06:18 15.7 °C 12.3 °C 80 % 6 km/h (9 km/h) 0 mm0 mm 18.7 °C 19.4 °C 19.3 °C 18.7 °C 20000 m 0 cm 0 min 0 W/m² 1022 hPa
06:12 15.6 °C 12.2 °C 80 % 5 km/h (9 km/h) 0 mm0 mm 18.8 °C 19.4 °C 19.3 °C 18.7 °C 20000 m 0 cm 0 min 0 W/m² 1021.8 hPa
06:06 15.7 °C 12.3 °C 80 % 3 km/h (6 km/h) 0 mm0 mm 18.8 °C 19.4 °C 19.3 °C 18.7 °C 20000 m 0 cm 0 min 0 W/m² 1021.6 hPa
06:00 15.9 °C 12.3 °C 79 % 3 km/h (5 km/h) 0 mm0 mm 18.8 °C 19.4 °C 19.2 °C 18.7 °C 20000 m 0 cm 0 min 0 W/m² 1021.7 hPa
05:54 16.1 °C 12.3 °C 78 % 4 km/h (6 km/h) 0 mm0 mm 18.8 °C 19.5 °C 19.3 °C 18.7 °C 20000 m 0 cm 0 min 0 W/m² 1021.6 hPa
05:48 16.4 °C 12.4 °C 77 % 5 km/h (6 km/h) 0 mm0 mm 18.8 °C 19.4 °C 19.2 °C 18.7 °C 20000 m 0 cm 0 min 0 W/m² 1021.7 hPa
05:42 16.7 °C 12.4 °C 76 % 4 km/h (7 km/h) 0 mm0 mm 18.8 °C 19.5 °C 19.2 °C 18.7 °C 20000 m 0 cm 0 min 0 W/m² 1021.8 hPa
05:36 16.7 °C 12.2 °C 75 % 4 km/h (7 km/h) 0 mm0 mm 18.9 °C 19.5 °C 19.2 °C 18.7 °C 20000 m 0 cm 0 min 0 W/m² 1021.9 hPa
05:30 16.8 °C 12.3 °C 75 % 4 km/h (7 km/h) 0 mm0 mm 18.9 °C 19.5 °C 19.3 °C 18.7 °C 20000 m 0 cm 0 min 0 W/m² 1022.1 hPa
05:24 16.9 °C 12.2 °C 74 % 4 km/h (7 km/h) 0 mm0 mm 18.9 °C 19.5 °C 19.2 °C 18.7 °C 20000 m 0 cm 0 min 0 W/m² 1022 hPa
05:18 17 °C 12.1 °C 73 % 4 km/h (6 km/h) 0 mm0 mm 18.9 °C 19.5 °C 19.3 °C 18.7 °C 20000 m 0 cm 0 min 0 W/m² 1022.1 hPa
05:12 17.1 °C 12.2 °C 73 % 4 km/h (6 km/h) 0 mm0 mm 18.9 °C 19.6 °C 19.3 °C 18.7 °C 20000 m 0 cm 0 min 0 W/m² 1022.1 hPa
05:06 17.2 °C 12.1 °C 72 % 4 km/h (8 km/h) 0 mm0 mm 18.9 °C 19.6 °C 19.2 °C 18.7 °C 20000 m 0 cm 0 min 0 W/m² 1022 hPa
05:00 17.3 °C 12 °C 71 % 5 km/h (11 km/h) 0 mm0 mm 19 °C 19.6 °C 19.2 °C 18.7 °C 20000 m 0 cm 0 min 0 W/m² 1022 hPa
04:54 17.4 °C 12.1 °C 71 % 6 km/h (12 km/h) 0 mm0 mm 19 °C 19.6 °C 19.2 °C 18.7 °C 20000 m 0 cm 0 min 0 W/m² 1022.1 hPa
04:48 17.5 °C 12 °C 70 % 8 km/h (13 km/h) 0 mm0 mm 19 °C 19.6 °C 19.2 °C 18.7 °C 20000 m 0 cm 0 min 0 W/m² 1021.9 hPa
04:42 17.5 °C 12 °C 70 % 8 km/h (13 km/h) 0 mm0 mm 19 °C 19.6 °C 19.2 °C 18.7 °C 20000 m 0 cm 0 min 0 W/m² 1021.9 hPa
04:36 17.5 °C 11.7 °C 69 % 8 km/h (13 km/h) 0 mm0 mm 19 °C 19.6 °C 19.2 °C 18.7 °C 20000 m 0 cm 0 min 0 W/m² 1021.9 hPa
04:30 17.7 °C 11.9 °C 69 % 8 km/h (13 km/h) 0 mm0 mm 19.1 °C 19.6 °C 19.2 °C 18.7 °C 20000 m 0 cm 0 min 0 W/m² 1021.7 hPa
04:24 17.7 °C 11.7 °C 68 % 9 km/h (15 km/h) 0 mm0 mm 19.1 °C 19.7 °C 19.2 °C 18.7 °C 20000 m 0 cm 0 min 0 W/m² 1021.7 hPa
04:18 17.8 °C 11.6 °C 67 % 10 km/h (15 km/h) 0 mm0 mm 19.1 °C 19.7 °C 19.2 °C 18.7 °C 20000 m 0 cm 0 min 0 W/m² 1021.6 hPa
04:12 17.8 °C 11.6 °C 67 % 8 km/h (14 km/h) 0 mm0 mm 19.1 °C 19.7 °C 19.2 °C 18.7 °C 20000 m 0 cm 0 min 0 W/m² 1021.5 hPa
04:06 17.8 °C 11.4 °C 66 % 9 km/h (15 km/h) 0 mm0 mm 19.2 °C 19.7 °C 19.2 °C 18.7 °C 20000 m 0 cm 0 min 0 W/m² 1021.6 hPa
04:00 17.9 °C 11.5 °C 66 % 10 km/h (15 km/h) 0 mm0 mm 19.2 °C 19.7 °C 19.2 °C 18.7 °C 20000 m 0 cm 0 min 0 W/m² 1021.7 hPa
03:54 17.8 °C 11.4 °C 66 % 11 km/h (16 km/h) 0 mm0 mm 19.2 °C 19.7 °C 19.2 °C 18.7 °C 20000 m 0 cm 0 min 0 W/m² 1021.8 hPa
03:48 17.8 °C 11.4 °C 66 % 10 km/h (18 km/h) 0 mm0 mm 19.2 °C 19.8 °C 19.2 °C 18.7 °C 20000 m 0 cm 0 min 0 W/m² 1021.7 hPa
03:42 17.6 °C 11.4 °C 67 % 9 km/h (18 km/h) 0 mm0 mm 19.2 °C 19.8 °C 19.2 °C 18.7 °C 20000 m 0 cm 0 min 0 W/m² 1021.7 hPa
03:36 17.4 °C 11.2 °C 67 % 8 km/h (12 km/h) 0 mm0 mm 19.3 °C 19.8 °C 19.2 °C 18.7 °C 20000 m 0 cm 0 min 0 W/m² 1021.7 hPa
03:30 17.3 °C 11.1 °C 67 % 8 km/h (12 km/h) 0 mm0 mm 19.3 °C 19.8 °C 19.2 °C 18.7 °C 20000 m 0 cm 0 min 0 W/m² 1021.6 hPa
03:24 17.4 °C 11.2 °C 67 % 8 km/h (13 km/h) 0 mm0 mm 19.3 °C 19.8 °C 19.2 °C 18.7 °C 20000 m 0 cm 0 min 0 W/m² 1021.6 hPa
03:18 17.4 °C 11.2 °C 67 % 9 km/h (13 km/h) 0 mm0 mm 19.3 °C 19.9 °C 19.2 °C 18.7 °C 20000 m 0 cm 0 min 0 W/m² 1021.7 hPa
03:12 17.4 °C 11.2 °C 67 % 8 km/h (11 km/h) 0 mm0 mm 19.4 °C 19.9 °C 19.2 °C 18.7 °C 20000 m 0 cm 0 min 0 W/m² 1021.8 hPa
03:06 17.5 °C 11.1 °C 66 % 6 km/h (11 km/h) 0 mm0 mm 19.4 °C 19.9 °C 19.2 °C 18.7 °C 20000 m 0 cm 0 min 0 W/m² 1021.8 hPa
03:00 17.6 °C 11.2 °C 66 % 6 km/h (10 km/h) 0 mm0 mm 19.5 °C 19.9 °C 19.2 °C 18.7 °C 20000 m 0 cm 0 min 0 W/m² 1021.7 hPa
02:54 17.7 °C 11.3 °C 66 % 7 km/h (10 km/h) 0 mm0 mm 19.5 °C 19.9 °C 19.2 °C 18.7 °C 20000 m 0 cm 0 min 0 W/m² 1021.7 hPa
02:48 17.7 °C 11 °C 65 % 6 km/h (9 km/h) 0 mm0 mm 19.5 °C 19.9 °C 19.2 °C 18.7 °C 20000 m 0 cm 0 min 0 W/m² 1021.8 hPa
02:42 17.9 °C 11.2 °C 65 % 6 km/h (9 km/h) 0 mm0 mm 19.5 °C 20 °C 19.2 °C 18.7 °C 20000 m 0 cm 0 min 0 W/m² 1021.8 hPa
02:36 18.1 °C 11.2 °C 64 % 6 km/h (9 km/h) 0 mm0 mm 19.6 °C 20 °C 19.2 °C 18.7 °C 20000 m 0 cm 0 min 0 W/m² 1021.8 hPa
02:30 18 °C 11.1 °C 64 % 6 km/h (9 km/h) 0 mm0 mm 19.6 °C 20 °C 19.2 °C 18.7 °C 20000 m 0 cm 0 min 0 W/m² 1021.8 hPa
02:24 18.1 °C 10.9 °C 63 % 6 km/h (9 km/h) 0 mm0 mm 19.6 °C 20 °C 19.2 °C 18.7 °C 20000 m 0 cm 0 min 0 W/m² 1021.9 hPa
02:18 18.1 °C 10.9 °C 63 % 5 km/h (9 km/h) 0 mm0 mm 19.6 °C 20 °C 19.2 °C 18.7 °C 20000 m 0 cm 0 min 0 W/m² 1021.8 hPa
02:12 18.2 °C 11 °C 63 % 6 km/h (9 km/h) 0 mm0 mm 19.6 °C 20 °C 19.2 °C 18.7 °C 20000 m 0 cm 0 min 0 W/m² 1021.7 hPa
02:06 18.2 °C 10.8 °C 62 % 5 km/h (8 km/h) 0 mm0 mm 19.7 °C 20.1 °C 19.2 °C 18.7 °C 20000 m 0 cm 0 min 0 W/m² 1021.7 hPa
02:00 18.2 °C 11 °C 63 % 6 km/h (9 km/h) 0 mm0 mm 19.7 °C 20.1 °C 19.2 °C 18.7 °C 20000 m 0 cm 0 min 0 W/m² 1021.8 hPa
01:54 18.3 °C 10.9 °C 62 % 6 km/h (9 km/h) 0 mm0 mm 19.7 °C 20.1 °C 19.2 °C 18.7 °C 20000 m 0 cm 0 min 0 W/m² 1021.8 hPa
01:48 18.2 °C 10.8 °C 62 % 5 km/h (9 km/h) 0 mm0 mm 19.8 °C 20.1 °C 19.2 °C 18.7 °C 20000 m 0 cm 0 min 0 W/m² 1021.9 hPa
01:42 18.2 °C 10.8 °C 62 % 5 km/h (9 km/h) 0 mm0 mm 19.8 °C 20.1 °C 19.2 °C 18.7 °C 20000 m 0 cm 0 min 0 W/m² 1021.8 hPa
01:36 18.4 °C 10.7 °C 61 % 5 km/h (9 km/h) 0 mm0 mm 19.8 °C 20.1 °C 19.2 °C 18.7 °C 20000 m 0 cm 0 min 0 W/m² 1021.8 hPa
01:30 18.5 °C 10.8 °C 61 % 6 km/h (10 km/h) 0 mm0 mm 19.8 °C 20.1 °C 19.2 °C 18.7 °C 20000 m 0 cm 0 min 0 W/m² 1021.8 hPa
01:24 18.6 °C 10.9 °C 61 % 6 km/h (11 km/h) 0 mm0 mm 19.9 °C 20.1 °C 19.2 °C 18.7 °C 20000 m 0 cm 0 min 0 W/m² 1021.8 hPa
01:18 18.7 °C 10.8 °C 60 % 6 km/h (11 km/h) 0 mm0 mm 19.9 °C 20.2 °C 19.2 °C 18.7 °C 20000 m 0 cm 0 min 0 W/m² 1021.9 hPa
01:12 18.7 °C 10.8 °C 60 % 6 km/h (10 km/h) 0 mm0 mm 19.9 °C 20.2 °C 19.2 °C 18.7 °C 20000 m 0 cm 0 min 0 W/m² 1021.9 hPa
01:06 18.9 °C 10.7 °C 59 % 6 km/h (10 km/h) 0 mm0 mm 19.9 °C 20.2 °C 19.2 °C 18.7 °C 20000 m 0 cm 0 min 0 W/m² 1021.8 hPa
01:00 19 °C 10.8 °C 59 % 7 km/h (11 km/h) 0 mm0 mm 20 °C 20.2 °C 19.2 °C 18.7 °C 20000 m 0 cm 0 min 0 W/m² 1021.8 hPa
00:54 19 °C 10.8 °C 59 % 7 km/h (11 km/h) 0 mm0 mm 20 °C 20.2 °C 19.2 °C 18.7 °C 20000 m 0 cm 0 min 0 W/m² 1022 hPa
00:48 19 °C 10.8 °C 59 % 8 km/h (16 km/h) 0 mm0 mm 20.1 °C 20.2 °C 19.2 °C 18.7 °C 20000 m 0 cm 0 min 0 W/m² 1022 hPa
00:42 19 °C 10.5 °C 58 % 8 km/h (16 km/h) 0 mm0 mm 20.1 °C 20.3 °C 19.2 °C 18.7 °C 20000 m 0 cm 0 min 0 W/m² 1022.1 hPa
00:36 19 °C 10.5 °C 58 % 7 km/h (12 km/h) 0 mm0 mm 20.1 °C 20.3 °C 19.2 °C 18.7 °C 20000 m 0 cm 0 min 0 W/m² 1022 hPa
00:30 19.1 °C 10.6 °C 58 % 6 km/h (10 km/h) 0 mm0 mm 20.1 °C 20.3 °C 19.2 °C 18.7 °C 20000 m 0 cm 0 min 0 W/m² 1022 hPa
00:24 19.2 °C 10.5 °C 57 % 6 km/h (12 km/h) 0 mm0 mm 20.2 °C 20.3 °C 19.1 °C 18.7 °C 20000 m 0 cm 0 min 0 W/m² 1021.9 hPa
00:18 19.3 °C 10.6 °C 57 % 7 km/h (12 km/h) 0 mm0 mm 20.2 °C 20.3 °C 19.1 °C 18.7 °C 20000 m 0 cm 0 min 0 W/m² 1021.9 hPa
00:12 19.4 °C 10.7 °C 57 % 8 km/h (12 km/h) 0 mm0 mm 20.3 °C 20.4 °C 19.2 °C 18.7 °C 20000 m 0 cm 0 min 0 W/m² 1021.8 hPa
00:06 19.3 °C 10.6 °C 57 % 8 km/h (11 km/h) 0 mm0 mm 20.3 °C 20.4 °C 19.2 °C 18.7 °C 20000 m 0 cm 0 min 0 W/m² 1021.9 hPa
00:00 19.4 °C 10.7 °C 57 % 7 km/h (11 km/h) 0 mm0 mm 20.3 °C 20.4 °C 19.1 °C 18.7 °C 20000 m 0 cm 0 min 0 W/m² 1021.9 hPa

Données via Météo-France

Relevés météo à Trappes

Cette page rassemble les observations de la station de Trappes : température, humidité, vent, précipitations et pression atmosphérique. Les graphiques facilitent le suivi de la journée, tandis que le tableau donne accès aux mesures horaires et infra-horaires disponibles.

Pour replacer ces mesures dans leur contexte, consultez la climatologie de Trappes ainsi que ses normales et records. Retrouvez aussi la carte des observations météo en temps réel.